www.pogodaiklimat.ru

Погода и климат >> Архив погоды >> Россия >> Забайкальский край >> Усть-Каренга


ПОГОДА в Усть-Каренге

  • Прогноз погоды в Усть-Каренге
  • Монитор погоды в Усть-Каренге

АРХИВ ПОГОДЫ в Усть-Каренге

Время (UTC), дата Ветер
(напр.,м/с)
 
Видим.   Явления Облачность Т
(С)
Тd
(С)
f
(%)
Тe
(С)
Тes
(С)
Комфортность P
(гПа)
Po
(гПа)
Тmin
(С)
Tmax
(С)
R
(мм)
R24
(мм)
S
(см)
18 12.01 ЮВ 1 н/о 3/0
[Ci fib]
-36.0 -40.1 66 -41 -41 опасность
обморожения
1039.2 942.1
21 12.01 штиль 0 н/о 5/0
[Ci sp]
-36.4 -40.6 65 -36 -36 опасность
обморожения
1038.5 941.3
00 13.01 штиль 0 н/о 8/0
[Ac lent Ci sp]
-34.8 -38.9 66 -35 -35 опасность
обморожения
1037.1 940.6 -37.5 21
03 13.01 штиль 0 50 км 10/0
[As op Cs]
-29.3 -32.8 72 -29 -28 1034.2 940.1
06 13.01 штиль 0 50 км 10/0
[As op]
-26.0 -29.8 70 -26 -26 1031.4 938.7
09 13.01 штиль 0 н/о слаб. снег 10/0
[As op]
-24.1 -27.2 75 -24 -24 1030.9 938.9
12 13.01 штиль 0 н/о слаб. снег 10/0
[As trans]
-25.1 -28.0 77 -25 -25 1031.7 939.3 -23.9 0.3
15 13.01 ЮВ 1 н/о слаб. снег 6/0
[Ac und]
-27.1 -30.4 73 -31 -31 опасность
обморожения
1033.9 940.6
18 13.01 ЮВ 1 н/о {снег} 3/0
[Ci fib]
-31.5 -34.8 72 -36 -36 опасность
обморожения
1036.8 941.6
21 13.01 штиль 0 50 км 10/0
[Ac und Cs]
-29.3 -32.8 72 -29 -29 1034.2 940.1
00 14.01 ЮВ 1 н/о 4/0
[Ac lent Ci fib]
-33.2 -37.0 69 -38 -38 опасность
обморожения
1041.3 945.1 -33.4 0.0 21
03 14.01 штиль 0 50 км 3/0
[Ci fib]
-28.4 -32.9 65 -28 -27 1040.7 946.3 -34.4
06 14.01 СЗ 3 50 км 3/0
[Ac lent Ci fib]
-19.3 -30.8 35 -27 -26 1037.2 946.3
09 14.01 ЮВ 1 н/о 4 балла -24.1 -30.2 57 -28 -28 1041.0 948.0
12 14.01 штиль 0 н/о 10/0
[Ac lent Cs]
-31.4 -35.3 68 -31 -31 опасность
обморожения
1042.7 947.0 -19.0
15 14.01 ЮВ 1 н/о 10 баллов -31.8 -35.9 67 -36 -36 опасность
обморожения
1042.7 946.7
18 14.01 штиль 0 н/о 10/0
[As trans]
-30.2 -34.2 68 -30 -30 1035.1 940.6
21 14.01 штиль 0 н/о 10 баллов -26.9 -30.8 69 -27 -27 1030.3 937.3
00 15.01 ЮВ 2 н/о 7 баллов -29.6 -32.7 74 -37 -37 опасность
обморожения
1028.5 934.7 -32.0
03 15.01 ЮВ 1 50 км 8/0
[Ac lent Ci sp]
-26.4 -30.6 68 -30 -29 1025.3 933.0
06 15.01 ЮВ 1 50 км 4/0
[Ci fib]
-16.9 -26.6 43 -20 -19 1020.3 931.7
09 15.01 В 1 н/о 3/0
[Ci fib]
-23.3 -27.6 68 -27 -27 1022.9 931.9
12 15.01 ЮВ 1 н/о 1/0
[Ci fib]
-31.6 -35.3 70 -36 -36 опасность
обморожения
1026.8 932.5 -15.7
15 15.01 штиль 0 н/о ясно -34.6 -38.8 65 -35 -35 опасность
обморожения
1028.7 933.1
18 15.01 ЮВ 1 н/о ясно -38.1 -42.8 61 -43 -43 опасность
обморожения
1031.0 933.9
21 15.01 штиль 0 н/о ясно -39.0 -43.5 62 -39 -39 опасность
обморожения
1032.6 934.9
00 16.01 штиль 0 н/о ясно -41.5 -46.3 59 -42 -42 опасность
обморожения
1035.3 936.4 -41.5 21
03 16.01 В 1 50 км ясно -33.7 -38.5 62 -38 -37 опасность
обморожения
1033.6 937.9 -41.9
06 16.01 З 1 50 км 7 баллов -26.9 -33.0 56 -31 -30 опасность
обморожения
1031.9 938.7
09 16.01 штиль 0 н/о 2 балла -28.7 -33.3 64 -29 -29 1032.6 938.7
12 16.01 штиль 0 н/о 2 балла -34.0 -37.8 68 -34 -34 опасность
обморожения
1036.2 940.0 -23.6
15 16.01 штиль 0 н/о 7 баллов -34.7 -38.9 65 -35 -35 опасность
обморожения
1035.0 938.7
18 16.01 штиль 0 н/о 10/0
[Cs]
-33.3 -37.2 68 -33 -33 опасность
обморожения
1032.9 937.4
21 16.01 штиль 0 н/о слаб. снег 10 баллов -30.3 -34.1 69 -30 -30 1033.2 938.7
00 17.01 штиль 0 н/о слаб. снег 10 баллов -29.0 -32.6 71 -29 -29 1031.2 937.3 -35.2 0.2
03 17.01 штиль 0 50 км в посл. час снег 10 баллов -25.3 -29.6 67 -25 -25 1031.2 938.7
06 17.01 штиль 0 50 км 4 балла -20.8 -27.4 55 -21 -20 1028.0 937.3
09 17.01 штиль 0 н/о 2 балла -25.3 -29.1 70 -25 -25 1031.2 938.7
12 17.01 штиль 0 н/о ясно -30.9 -34.4 71 -31 -31 опасность
обморожения
1034.9 940.0 -20.3 0.3
15 17.01 штиль 0 н/о ясно -33.8 -37.9 66 -34 -34 опасность
обморожения
1036.1 940.0
18 17.01 штиль 0 н/о ясно -36.6 -40.8 65 -37 -37 опасность
обморожения
1037.3 940.0
21 17.01 ЮВ 1 н/о 2 балла -37.8 -42.2 63 -43 -43 опасность
обморожения
1037.8 940.0
06 18.01 штиль 0 10 км слаб. снег 10 баллов -26.1 -30.7 65 -26 -26 1031.6 938.7
15 18.01 ЮВ 2 н/о 2 балла -32.2 -35.9 69 -40 -40 опасность
обморожения
1035.4 940.0
18 18.01 ЮВ 3 н/о 2 балла -34.5 -38.4 67 -45 -45 опасность
обморожения
1037.8 941.3
03 19.01 В 1 50 км 10 баллов -31.3 -35.2 68 -36 -36 опасность
обморожения
1039.5 944.0 -39.4
06 19.01 З 1 50 км 6 баллов -24.8 -30.0 62 -28 -28 1033.9 941.3
09 19.01 ЮВ 1 н/о 5 баллов -24.9 -28.6 71 -28 -28 1033.9 941.3
12 19.01 В 1 н/о 4 балла -30.2 -33.3 74 -34 -34 опасность
обморожения
1034.6 940.0 -22.9

 

Местоположение метеостанции Усть-Каренга (Забайкальский край, Россия): широта 54.43 долгота 116.50 высота над уровнем моря 688 м.

В архиве по умолчанию представлена погода в Усть-Каренге за последнюю неделю. Архивные данные за месяц целиком и за предыдущие месяцы, начиная с января 2011 года, Вы можете получить, выбрав интересующий диапазон дат из раскрывающегося списка и нажав кнопку "Ввод!".


*Определитесь, кто Вы:
робот инопланетянин человек

Внимание! Время в таблицах - всемирное. Для получения местного времени необходимо прибавить поправку, которая равна 9 ч.

Смотрите также архив погоды в соседних городах и на ближайших метеорологических станциях:

Погода в Тунгокочене (Забайкальский край, Россия) (116 км)
Погода в Ксеньевской (Забайкальский край, Россия) (174 км)
Погода в Багдарине (Бурятия, Россия) (194 км)
Погода в Чернышевске (Забайкальский край, Россия) (214 км)
Погода в Усугли (Забайкальский край, Россия) (219 км)
Погода в Уаките (Бурятия, Россия) (219 км)
Погода в Тупике (Забайкальский край, Россия) (220 км)
Погода в Троицком Прииске (Бурятия, Россия) (220 км)
Погода в Могоче (Забайкальский край, Россия) (222 км)
Погода в Баунте (Бурятия, Россия) (237 км)

Пояснения к столбцам:

Ветер - указаны скорость ветра в м/с - средняя за 10 мин, порывы в срок и между сроками (в фигурных скобках) и направление, откуда дует ветер: С - северный, СВ - северо-восточный, В - восточный, ЮВ - юго-восточный, Ю - южный, ЮЗ - юго-западный, З - западный, СЗ - северо-западный.
Видимость - горизонтальная дальность видимости в метрах или километрах. При видимости от 1 до 10 км при отсутствии осадков обычно наблюдается дымка, при ухудшении видимости до 1 км и менее - туман. В сухую погоду видимость может ухудшаться дымом, пылью или мглою.
Явления - указаны атмосферные явления, наблюдавшиеся в срок или в последний час перед сроком; фигурными скобками обозначены явления, наблюдавшиеся между сроками (за 1-3 часа до срока); квадратными скобками обозначены град или гололедные отложения с указанием их диаметра в мм.
Облачность - указаны через наклонную черту общая и нижняя облачность в баллах и высота нижней границы облаков в метрах; квадратными скобками обозначены формы облаков: Ci - перистые, Cs - перисто-слоистые, Cc - перисто-кучевые, Ac - высококучевые, As - высокослоистые, Sc - слоисто-кучевые, Ns - слоисто-дождевые, Cu - кучевые, Cb - кучево-дождевые. Подробнее классификацию облаков см. в Атласе облаков (PDF).
T - Температура воздуха - температура, измеренная на высоте 2 м над землей.
Td - Температура точки росы - температура, при понижении до которой содержащийся в воздухе водяной пар достигнет насыщения.
f - Относительная влажность воздуха - влажноcть воздуха, измеренная на высоте 2 м над землей.
Te - Эффективная температура - температура, которую ощущает одетый по сезону человек в тени. Характеристика душности погоды. При расчете учитывается влияние влажности воздуха и скорости ветра на теплоощущения человека.
Tes - Эффективная температура на солнце - температура, которую ощущает человек, с поправкой на солнечный нагрев. Характеристика знойности погоды. Зависит от высоты солнца над горизонтом, облачности и скорости ветра. Ночью, в пасмурную погоду, а также при ветре 12 м/с и более поправка равна нулю.
P - Атмосферное давление - приведенное к уровню моря атмосферное давление.
Po - Атмосферное давление - измеренное на уровне метеостанции атмосферное давление.
Tmin - Минимальная температура - минимум температуры воздуха на высоте 2 м над землей.
Tmax - Максимальная температура - максимум температуры воздуха на высоте 2 м над землей.
R - Количество осадков - Количество выпавших осадков за период времени, мм. При наведении курсора мыши на число - период времени, за который выпало указанное количество осадков.
R24 - Количество осадков - Количество выпавших осадков за 24 часа, мм.
S - Снежный покров - Высота снежного покрова, см. При наведении курсора мыши на число - состояние снежного покрова и степень покрытия местности в баллах.